Location: Hysolar-Haus
(48.7436°N, 9.0965°E)
Time: 08:33:52
(UTC+00:00)

Daily predictions for brighter satellites

Satellite Brightness Start Highest point End
(mag) Time Altitude Azimuth Time Altitude Azimuth Time Altitude Azimuth
USA 215 3.8 15:52:18 10° ENE 15:58:30 47° N 16:04:42 10° W
Cosmos 1626 Rocket 3.6 15:55:21 10° N 15:59:37 55° ENE 16:03:50 10° SSE
Iridium 51 3.7 15:58:23 10° S 16:01:29 66° E 16:04:41 10° N
SL-16 R/B 2.6 15:56:40 10° NNE 16:02:52 63° ESE 16:09:00 10° S
Cosmos 773 Rocket 4.0 15:57:58 10° NNW 16:03:11 66° ENE 16:08:23 10° SSE
CZ-2D R/B 4.2 16:01:53 10° ESE 16:04:05 18° ENE 16:06:18 10° NNE
Cosmos 1867 4.0 15:58:58 10° NNW 16:04:10 42° NE 16:09:19 10° ESE
Cosmos 1656 3.8 16:05:05 10° SSW 16:10:37 66° ESE 16:16:16 10° NNE
Cosmos 1782 2.6 16:13:37 10° S 16:17:08 58° E 16:20:41 10° NNE
Cosmos 1544 Rocket 3.6 16:13:31 10° S 16:17:51 64° E 16:22:15 10° NNE
Cosmos 1743 2.5 16:14:41 10° N 16:17:52 47° ENE 16:21:01 10° SSE
ARIANE 5 R/B 2.8 16:16:02 10° SE 16:20:50 45° ENE 16:25:43 10° N
Cosmos 2297 Rocket 2.2 16:19:13 10° NNW 16:24:55 82° ENE 16:30:35 10° SSE
Cosmos 2208 Rocket 4.2 16:23:25 10° NNW 16:28:36 79° WSW 16:33:46 10° SSE
MOS 1 Rocket 3.8 16:26:44 10° SE 16:31:20 41° ENE 16:36:11 10° N
Okean 1-7 Rocket 3.8 16:27:15 10° N 16:31:29 44° ENE 16:35:39 10° SSE
IRS-P3 4.5 16:26:52 10° SE 16:31:50 42° ENE 16:36:48 10° N
NOSS 3-2 (A) 3.4 16:28:24 10° SW 16:33:28 71° NW 16:39:35 10° NE
NOSS 3-2 (C) 3.3 16:29:23 10° SSW 16:34:14 55° ESE 16:39:27 13° NE
SPOT 1/Viking Rocket 4.3 16:29:47 10° ESE 16:34:18 31° ENE 16:38:49 10° N
Cosmos 1634 Rocket 4.5 16:28:26 10° SSW 16:34:33 64° WNW 16:40:42 10° N
NOSS 2-2 (D) 3.2 16:33:51 10° SW 16:37:05 53° NW 16:39:34 14° NNE
Cosmos 1900 4.3 16:33:07 10° NNW 16:38:11 68° NE 16:43:06 10° SE
Cosmos 1602 Rocket 3.5 16:33:55 10° N 16:38:20 74° E 16:42:40 10° SSE
Cosmos 2228 4.1 16:35:18 10° SSW 16:39:21 44° WNW 16:43:27 10° N
Cosmos 2219 4.1 16:38:11 10° NNW 16:43:01 27° NE 16:47:21 12° E
Cosmos 1655 Rocket 4.3 16:38:11 10° N 16:44:04 41° ENE 16:49:53 10° SE
Cosmos 783 Rocket 4.5 16:41:02 10° NNW 16:46:21 72° ENE 16:51:37 10° SSE
YAOGAN 1 3.6 16:43:47 10° ESE 16:47:10 23° ENE 16:50:34 10° N
Cosmos 2279 Rocket 4.3 16:41:26 10° SSW 16:47:38 73° W 16:53:53 10° N
Lacrosse 4 Rocket 3.6 16:44:50 10° W 16:47:39 18° NW 16:50:26 10° N
Meteor 1-25 Rocket 4.3 16:41:52 10° N 16:47:40 64° ENE 16:53:23 10° SSE
Cosmos 1980 Rocket 3.3 16:46:27 10° SSE 16:50:50 24° ESE 16:53:02 19° ENE
Meteor 1-5 Rocket 4.3 16:46:18 10° N 16:51:26 45° ENE 16:56:39 10° SE
NOSS 7 (H) 4.0 16:48:56 10° NW 16:51:50 65° NE 16:54:59 10° SE
Cosmos 1844 Rocket 4.3 16:50:22 10° N 16:53:29 15° NNE 16:54:06 14° NE
Meteor 1-28 Rocket 3.9 16:50:38 10° N 16:53:52 45° WNW 16:57:04 10° SW
NOSS 2-2 (E) 3.5 16:51:30 10° WSW 16:54:39 45° NW 16:56:34 19° NNE
GEOS 3 Rocket 3.7 16:54:13 14° NE 16:58:52 86° NW 17:04:15 10° SW
Thor Agena Rocket 4.2 16:54:47 10° S 16:59:55 58° WSW 17:05:01 10° NNW
Cosmos 2263 Rocket 2.5 16:56:05 10° NNW 17:01:33 45° NE 17:06:59 10° SE
Cosmos 1953 Rocket 4.0 16:57:27 10° N 17:01:39 40° ENE 17:05:51 10° SE
UNK 3.9 16:59:09 10° N 17:03:45 75° WNW 17:08:16 10° SSW
Cosmos 1503 Rocket 4.0 16:59:47 10° SSW 17:05:02 89° ESE 17:09:56 12° NNE
Cosmos 2151 3.5 17:01:56 10° NNW 17:06:02 59° W 17:10:06 10° S
SMAP 3.7 17:02:12 10° S 17:06:47 58° W 17:11:24 10° NNW
Cosmos 1825 Rocket 3.4 17:07:26 10° N 17:11:49 82° E 17:16:07 10° SSE
Landsat 7 4.2 17:07:18 10° S 17:11:55 66° WSW 17:16:34 10° NNW
Cosmos 1933 3.1 17:08:56 10° S 17:12:45 86° E 17:16:06 13° N
Lacrosse 5 rocket 2.6 17:09:41 10° WNW 17:12:47 24° N 17:13:51 21° NNE
Cosmos 1354 Rocket 3.9 17:08:43 10° SSW 17:13:58 77° ESE 17:18:06 17° NNE
Cosmos 2227 Rocket 2.1 17:10:33 10° NNW 17:16:14 89° ENE 17:21:53 10° SSE
SJ-12 4.2 17:13:05 10° S 17:16:49 61° W 17:20:35 10° NNW
Cosmos 2098 Rocket 4.4 17:12:59 10° SW 17:16:57 42° WNW 17:21:37 10° N
CZ-4C R/B 3.3 17:11:30 10° NW 17:18:29 70° SW 17:27:06 10° SSE
CZ-4 R/B 4.2 17:15:25 10° SSE 17:19:20 69° ENE 17:23:16 10° N
CENTAUR R/B 3.9 17:13:55 10° W 17:19:32 33° NNW 17:24:42 16° NE
Spot 4 Rocket 4.1 17:14:53 10° SE 17:19:49 53° ENE 17:24:48 10° N
Cosmos 2266 Rocket 4.4 17:17:13 10° NNW 17:23:17 62° W 17:29:14 10° S
ATLAS CENTAUR R/B 4.2 17:22:14 10° W 17:23:40 13° WSW 17:25:06 10° SW
Cosmos 1461 3.1 17:20:55 10° SW 17:24:45 59° NW 17:26:27 30° NNE
NOSS 2-3 (C) 3.6 17:21:41 10° SSW 17:24:49 38° SE 17:24:49 38° SE
Cosmos 1898 Rocket 4.2 17:22:19 10° SSE 17:26:39 31° ESE 17:26:39 31° ESE
Cosmos 1697 Rocket 2.6 17:25:41 10° SSW 17:31:18 86° WNW 17:35:02 22° NNE
Cosmos 2058 Rocket 3.3 17:28:25 10° SSE 17:32:41 45° E 17:32:46 45° E
USA 238 DEB 3.7 17:28:47 10° SSW 17:34:37 50° ESE 17:36:53 35° ENE
USA 238 3.7 17:28:54 10° SSW 17:34:44 50° ESE 17:36:59 35° ENE
Cosmos 1076 Rocket 3.4 17:31:12 10° N 17:35:31 88° W 17:39:49 10° S
CZ-2D R/B 3.3 17:32:04 10° SSE 17:36:16 81° ENE 17:40:26 10° NNW
NOAA 15 4.5 17:33:53 10° SSE 17:39:11 79° ENE 17:44:29 10° NNW
PSLV R/B 3.3 17:39:37 62° E 17:39:43 63° ENE 17:43:44 10° N
Meteor 2-2 Rocket 4.4 17:34:25 10° SSE 17:39:48 48° E 17:41:15 39° NE
USA 215 3.7 17:38:19 32° ENE 17:40:49 46° N 17:47:02 10° WNW
Meteor 2-10 4.0 17:35:58 10° N 17:41:19 72° ENE 17:46:50 10° SSE
SL-19 R/B 4.1 17:38:24 10° SSE 17:43:44 72° ENE 17:49:25 10° NNW
COSMO-SKYMED 1 2.5 17:44:14 55° SE 17:44:14 55° SE 17:47:51 10° S
Cosmos 372 Rocket 4.0 17:39:23 10° S 17:44:23 53° ESE 17:44:54 50° E
SL-16 R/B 4.3 17:40:50 10° N 17:46:01 29° WNW 17:51:11 10° WSW
Cosmos 1553 Rocket 4.1 17:40:18 10° SSE 17:46:10 49° E 17:48:27 34° NE
Cosmos 1606 Rocket 4.4 17:42:01 10° SSW 17:46:18 50° WNW 17:50:34 10° N
IRAS Rocket 4.1 17:41:31 10° SSE 17:46:59 75° ENE 17:52:28 10° NNW
OceanSat 1 rocket 4.4 17:46:25 10° SSE 17:51:09 74° ENE 17:55:51 10° NNW
Gbstr 26 Del rocket 2.7 17:47:26 10° WSW 17:51:08 74° SSW 17:51:08 74° SSW
Aureole 1 Rocket 3.2 17:48:34 10° S 17:52:56 68° ESE 17:53:30 62° ENE
NOSS 2-3 (E) 3.3 17:51:38 10° SW 17:54:56 71° WSW 17:54:56 71° WSW
Resurs 1-3 3.6 17:52:15 10° S 17:56:33 79° WSW 18:00:53 10° NNW
NOSS 2-3 (D) 3.3 17:52:53 10° SW 17:56:08 68° SW 17:56:08 68° SW
Cosmos 990 Rocket 4.4 17:51:37 10° SW 17:56:40 58° WNW 17:59:30 26° N
Cosmos 2082 3.6 17:57:11 10° NNW 18:02:54 69° ENE 18:03:40 61° ESE
NOAA 6 3.9 18:00:44 10° SSE 18:05:50 88° ENE 18:10:59 10° NNW
USA 81 4.2 18:00:38 10° N 18:05:54 71° W 18:11:08 10° S
Cosmos 1244 Rocket 4.4 18:00:47 10° N 18:07:06 89° ENE 18:13:19 10° S
Meteor 1-26 Rocket 3.9 18:05:36 10° S 18:11:00 85° E 18:11:51 65° NNE
YAOGAN 1 3.7 18:18:47 10° S 18:22:48 41° W 18:26:52 10° NNW
SL-08 R/B 4.5 18:17:13 10° N 18:23:34 84° W 18:29:55 10° S
NOSS 3-2 (C) 4.3 18:20:21 10° W 18:25:20 38° NNW 18:26:53 33° N
Cosmos 2219 3.4 18:21:56 10° NNW 18:27:39 68° WSW 18:29:22 45° S
Cosmos 1386 Rocket 4.4 18:23:24 10° N 18:28:45 70° N 18:28:45 70° N
Cosmos-2242 4.4 18:28:04 10° SSW 18:30:52 35° SW 18:30:52 35° SW
Cosmos 1980 Rocket 2.5 18:28:45 10° SW 18:34:21 64° WNW 18:34:49 61° NNW
Cosmos 1844 Rocket 4.1 18:33:10 10° NNW 18:35:46 27° N 18:35:46 27° N
BREEZE-M DEB (TANK) 4.1 18:32:40 10° SW 18:37:39 40° S 18:37:39 40° S
Cosmos 2369 4.3 18:39:11 10° SSW 18:43:15 49° SSW 18:43:15 49° SSW
Cosmos 2263 Rocket 3.6 18:40:15 10° NW 18:45:20 35° WSW 18:50:25 10° S
CENTAUR R/B 4.3 19:06:33 10° NW 19:11:48 27° N 19:11:48 27° N
USA 215 4.0 19:25:40 45° NW 19:25:40 45° NW 19:30:01 10° NW
